Location: Mentone
(34.5413°N, 85.5351°W)
Time: 21:10:24
(UTC-05:00)

Tiros 1 despin weight - Visible Passes

Search period start: 29 August 2014 00:00
Search period end: 08 September 2014 00:00
Orbit: 601 x 653 km, 48.2° (Epoch: 28 August)

Date Brightness Start Highest point End Pass type
(mag) Time Alt. Az. Time Alt. Az. Time Alt. Az.
29 Aug ? 04:54:23 19° SSW 04:57:24 47° SE 05:01:55 10° ENE visible
30 Aug ? 03:36:06 15° ESE 03:36:06 15° ESE 03:38:13 10° E visible
30 Aug ? 05:13:22 18° SW 05:16:47 82° NW 05:21:31 10° NE visible
31 Aug ? 03:55:00 33° SE 03:55:00 33° SE 03:58:53 10° ENE visible
31 Aug ? 05:32:16 12° W 05:36:21 43° NNW 05:40:51 10° NE visible
01 Sep ? 04:13:49 74° SSE 04:13:58 75° SE 04:18:39 10° NE visible
02 Sep ? 02:55:20 12° E 02:55:20 12° E 02:55:42 10° ENE visible
02 Sep ? 04:32:34 47° WNW 04:33:27 55° NNW 04:38:04 10° NE visible
03 Sep ? 03:14:01 22° ENE 03:14:01 22° ENE 03:15:43 10° ENE visible
03 Sep ? 04:51:16 23° WNW 04:53:07 31° NNW 04:57:19 10° NE visible
04 Sep ? 03:32:40 32° NE 03:32:40 32° NE 03:35:14 10° NE visible
04 Sep ? 05:09:55 12° WNW 05:12:58 21° NNW 05:16:34 10° NNE visible
05 Sep ? 03:51:16 33° N 03:51:16 33° N 03:54:32 10° NE visible
05 Sep ? 05:29:57 10° NW 05:32:57 17° N 05:35:57 10° NNE visible
06 Sep ? 04:09:51 24° NNW 04:09:55 24° NNW 04:13:45 10° NE visible
06 Sep ? 05:50:18 10° NW 05:53:00 15° N 05:55:44 10° NE visible
07 Sep ? 02:51:10 13° NE 02:51:10 13° NE 02:51:44 10° NE visible
07 Sep ? 04:28:25 16° NW 04:29:51 18° NNW 04:33:03 10° NNE visible
